Погода в Шепетовке

Погода в Шепетовке : погода сейчас, прогноз погоды и архив. Всё, что Вы хотите узнать о погоде в Шепетовке!

Хотите узнать прогноз погоды в Шепетовке? Тогда Вам сюда: Погода в Шепетовке

Поиск расширенной информации на нашем сайте:

Другие новости

Новости СМИ2

Главная страница сайта

Новости сайта

03.07.2017

Напоминаем, что на нашем специализированном сайте Метеоцентр.Азия вы можете получить высокодетализированные автоматические прогнозы погоды по пунктам России, СНГ и мира в авиационном формате (включающие направление и скорость ветра, видимость, явления погоды, количество и форму облачности, нижнюю и верхнюю границу облачности).

Рекомендуем: татарское изготовление кухонь по цене интернет магазина

Погода в Шепетовке - сегодня

Время (UTC), дата Ветер
(°,м/с) 
Видим.   Явления Облачность Т
(°С)
Тd
(°С)
f(%) Тe
(°С)
Pmin
(гПа)
dP
(гПа)
Po
(мм)
O2
(г/м3)
Тmin Tmax R s Состояние
почвы
18 24.07.17 040 (СВ) 10 км    3/3 600 м 
[Sc]
+24.2 +17.2 65 +38  1006.7  -0.6  732  267    +28.2       
21 24.07.17 080 (В) н/о    ясно 
+20.9 +18.7 87 +38  1005.9  -1.1  731  269           
00 25.07.17 120 (ЮВ) н/о    ясно 
+19.6 +18 90 +35  1004.7  -1.3  730  270           
03 25.07.17 120 (ЮВ) 4000 м  дымка  8/0 средняя, верхняя 
[Ac trans|Ci]
+18.6 +17.6 94 +33  1003.5  -1.3  729  271           
06 25.07.17 130 (ЮВ) 10 км    8/0 средняя, верхняя 
[Ac trans|Ci]
+22 +16.7 72 +35  1002.2  -0.9  728  268  +18.4         
09 25.07.17 130 (ЮВ) 20000 м    3/0 верхняя 
[Ci fib]
+26.6 +15.4 50 +37  1001.1  -0.6  728  264           
12 25.07.17 130 (ЮВ) 20000 м    6/4 600 м верхняя 
[Cu med, cong|Ci fib]
+29 +14.9 42 +38  999.4  -1.4  727  262           
15 25.07.17 080 (В) 4000 м  гроза, ливневой дождь  10/10 420 м кучево-дожд. 
[Cb calv]
+27.2 +17.3 55 +41  998.2  -1.3  726  262           
18 25.07.17 120 (ЮВ) 10 км  в посл. час ливневой дождь{гроза}  9/4 300 м кучево-дожд., средняя, верхняя 
[Cb cap|Ac trans|Ci ing]
+23.4 +17.7 70 +38  998.6  726  265    +29.8  0.3     
21 25.07.17 тихо ()   н/о  гроза без осадков{ливн. осадки}  9/6 480 м кучево-дожд., средняя 
[Cb calv|Ac trans]
+18.6 +17.5 93 +33  999.7  0.5  726  270           
00 26.07.17 160 (Ю) н/о  в посл. час ливневой дождь{гроза}  8/6 480 м кучево-дожд., средняя 
[Cb cap|Ac trans]
+17.6 +16.4 93 +30  999  -0.8  725  271           
03 26.07.17 190 (Ю) 10 км  {ливн. осадки}  10/10 480 м кучево-дожд. 
[Cb cap]
+16.9 +15.6 92 +28  999.8  0.7  726  272           
06 26.07.17 260 (З) 10 км  {ливн. осадки}  9/9 300 м кучево-дожд. 
[Cb cap]
+16.4 +14.7 90 +27  1002.5  2.6  728  274  +16.4       
09 26.07.17 270 (З) 20000 м    8/5 300 м кучево-дожд., средняя 
[Cb cap|Ac trans]
+19.8 +14.2 70 +29  1003.4  1.2  729  271           
12 26.07.17 220 (ЮЗ) 20000 м    9/6 300 м кучево-дожд., средняя 
[Cb cap|Ac trans]
+21.4 +13.1 59 +28  1004.5  1.2  730  270           
15 26.07.17 тихо ()   20000 м    8/4 600 м средняя, верхняя 
[Cu med, cong|Ac As|Cc]
+22.7 +11.4 49 +26  1004.6  0.2  730  269           
18 26.07.17 тихо ()   20000 м    6/0 средняя, верхняя 
[Ac trans|Ci fib]
+19.3 +12.6 65 +25  1004.9  730  272    +23       
21 26.07.17 150 (ЮВ) н/о    ясно 
+16.2 +14.5 90 +25  1006.7  1.4  731  275           
00 27.07.17 150 (ЮВ) н/о    9/6 300 м средняя 
[Sc|Ac trans]
+16.1 +14.7 91 +26  1007.1  0.4  731  275           
03 27.07.17 290 (З) 10 км    8/4 300 м кучево-дожд., средняя 
[Cb cap|Ac trans]
+15.8 +14.4 91 +25  1007.2  731  275           
06 27.07.17 070 (В) 10 км    8/0 средняя, верхняя 
[Ac trans|Ci]
+19 +16.2 84 +33  1007.5  0.7  732  272  +15.2         
09 27.07.17 090 (В) 20000 м    8/3 600 м средняя, верхняя 
[Cu med, cong|Ac As|Cs]
+22.6 +11.5 49 +26  1007.2  732  270           
12 27.07.17 080 (В) 10 км    9/6 600 м кучево-дожд., средняя, верхняя 
[Cb cap|Ac As|Cs]
+22.3 +14 59 +30  1007.2  732  270           
15 27.07.17 100 (В) 20000 м  {ливн. осадки}  6/3 600 м средняя, верхняя 
[Cu med, cong|Ac trans|Ci ing]
+22.9 +16.1 66 +34  1006.6  -0.5  731  268           
18 27.07.17 тихо ()   10 км  {ливн. осадки}  6/0 средняя, верхняя 
[Ac trans|Ci fib]
+19.2 +16.4 84 +31  1007.5  0.5  732  272    +23.8  0.0     
Время (UTC), дата Ветер
(°,м/с) 
Видим.   Явления Облачность Т
(°С)
Тd
(°С)
f(%) Тe
(°С)
Pmin
(гПа)
dP
(гПа)
Po
(мм)
O2
(г/м3)
Тmin Tmax R s Состояние
почвы

Для получения пояснительной информации подведите курсор к названию столбца.

ПОГОДА в Шепетовке - архив

Всё, что Вы хотите узнать о погоде в Шепетовке - удобно и подробно!

Выберите нужную дату (начиная с 1 января 2015* года) и нажмите кнопку "Найти".
Будут отображены архивные сводки погоды по пункту Шепетовка, начиная с указанной даты.


Отображать данные в формате CSV (для использования в таблицах Excel)


Внимание! Наш архив погоды предназначен исключительно для личного некоммерческого использования в познавательных целях. Если Вам необходимы официальные справки о состоянии погоды (для производственных, юридических, коммерческих и т.п. целей), обращайтесь в органы Росгидромета.

*Примечание: данная дата относится к архиву по метеостанциям СССР (Россия, СНГ, Балтия).
Архив по метеостанциям Зарубежной Европы и Азии (кроме Китая) хранится 10 дней, по другим регионам земного шара (Китай, Африка, Америка, Австралия, Океания) - 1 день.

Шепетовка - район местоположения метеостанции


Название, широта, долгота, высота метеостанции:
Шепетовка 50.2°ш. 27°д. 278 м над ур. моря [Украина]

Дополнительная информация

В oтличие oт бoльшинства пoгoдных сайтoв мы публикуем пoдрoбную метеoинфoрмацию в детальнoм прoфессиoнальнoм фoрмате.

Характеристики температуры и влажнoсти вoздуха измеряются на высoте 2 м в тени вдали oт зданий и деревьев.
Скoрoсть ветра измеряется на высoте 10 м (на урoвне рoста челoвека скoрoсть ветра ниже в 1.5-2 раза). Если метеoстанция нахoдится в гoрoде или в лесу, тo скoрoсть ветра занижена на 2-4 м/с пo сравнению с oткрытым местoм. Скoрoсть ветра над акватoриями крупных рек и oзёр, а также на вершинах хoлмoв на 2-5 м/с выше, чем в oбычных услoвиях.
Атмoсфернoе давление в разных тoчках местнoсти мoжет значительнo oтличаться oт давления на метеoстанции, в зависимoсти oт услoвий рельефа (при пoдъёме на 10 м давление пoнижается примернo на 1 мм рт.ст.).